Year,Month,Day,Hour,Minute,Value (Times are PST for temperature in C)
2015,12,15,00,00,4.60
2015,12,15,00,01,4.60
2015,12,15,00,02,4.60
2015,12,15,00,03,4.60
2015,12,15,01,27,3.30
2015,12,15,01,28,3.30
2015,12,15,01,29,3.30
2015,12,15,01,30,3.30
2015,12,15,01,31,3.30
2015,12,15,01,32,3.30
2015,12,15,01,33,3.30
2015,12,15,01,34,3.30
2015,12,15,01,35,3.30
2015,12,15,01,36,3.30
2015,12,15,01,37,3.30
2015,12,15,01,39,3.30
2015,12,15,01,41,3.30
2015,12,15,01,42,3.30
2015,12,15,01,43,3.30
2015,12,15,01,44,3.30
2015,12,15,01,46,3.30
2015,12,15,01,47,3.30
2015,12,15,01,48,3.30
2015,12,15,01,49,3.30
2015,12,15,01,51,3.30
2015,12,15,01,52,3.30
2015,12,15,01,53,3.30
2015,12,15,01,54,3.30
2015,12,15,01,56,3.40
2015,12,15,01,57,3.40
2015,12,15,01,58,3.40
2015,12,15,01,59,3.40
2015,12,15,02,01,3.40
2015,12,15,02,02,3.50
2015,12,15,02,03,3.50
2015,12,15,02,04,3.50
2015,12,15,02,06,3.50
2015,12,15,02,07,3.40
2015,12,15,02,08,3.40
2015,12,15,02,09,3.40
2015,12,15,02,11,3.40
2015,12,15,02,12,3.40
2015,12,15,02,13,3.50
2015,12,15,02,14,3.50
2015,12,15,02,16,3.60
2015,12,15,02,17,3.60
2015,12,15,02,18,3.60
2015,12,15,02,19,3.70
2015,12,15,02,21,3.70
2015,12,15,02,22,3.80
2015,12,15,02,23,3.80
2015,12,15,02,24,3.80
2015,12,15,02,26,3.80
2015,12,15,02,27,3.80
2015,12,15,02,28,3.90
2015,12,15,02,29,3.90
2015,12,15,02,31,3.90
2015,12,15,02,32,4.00
2015,12,15,02,33,4.00
2015,12,15,02,34,4.00
2015,12,15,02,36,4.00
2015,12,15,02,37,4.00
2015,12,15,02,38,4.10
2015,12,15,02,39,4.10
2015,12,15,02,41,4.10
2015,12,15,02,42,4.00
2015,12,15,02,43,4.00
2015,12,15,02,44,4.00
2015,12,15,02,46,4.00
2015,12,15,02,47,4.00
2015,12,15,02,48,3.90
2015,12,15,02,49,3.90
2015,12,15,02,51,3.90
2015,12,15,02,52,3.80
2015,12,15,02,53,3.80
2015,12,15,02,54,3.80
2015,12,15,02,56,3.80
2015,12,15,02,57,3.80
2015,12,15,02,58,3.80
2015,12,15,02,59,3.80
2015,12,15,03,01,3.80
2015,12,15,03,02,3.80
2015,12,15,03,03,3.80
2015,12,15,03,04,3.70
2015,12,15,03,06,3.70
2015,12,15,03,07,3.70
2015,12,15,03,08,3.70
2015,12,15,03,09,3.70
2015,12,15,03,10,3.70
2015,12,15,03,11,3.70
2015,12,15,03,12,3.70
2015,12,15,03,13,3.70
2015,12,15,03,14,3.60
2015,12,15,03,15,3.60
2015,12,15,03,16,3.60
2015,12,15,03,17,3.60
2015,12,15,03,18,3.60
2015,12,15,03,19,3.60
2015,12,15,03,20,3.50
2015,12,15,03,21,3.50
2015,12,15,03,22,3.50
2015,12,15,03,23,3.50
2015,12,15,03,24,3.50
2015,12,15,03,25,3.50
2015,12,15,03,26,3.50
2015,12,15,03,27,3.50
2015,12,15,03,28,3.50
2015,12,15,03,29,3.40
2015,12,15,03,30,3.40
2015,12,15,03,31,3.40
2015,12,15,03,32,3.40
2015,12,15,03,33,3.40
2015,12,15,03,34,3.40
2015,12,15,03,35,3.40
2015,12,15,03,36,3.50
2015,12,15,03,37,3.50
2015,12,15,03,38,3.60
2015,12,15,03,39,3.60
2015,12,15,03,40,3.70
2015,12,15,03,41,3.80
2015,12,15,03,42,3.80
2015,12,15,03,43,3.80
2015,12,15,03,44,3.80
2015,12,15,03,45,3.90
2015,12,15,03,46,3.90
2015,12,15,03,47,3.90
2015,12,15,03,48,4.00
2015,12,15,03,49,4.00
2015,12,15,03,50,4.00
2015,12,15,03,51,4.00
2015,12,15,03,52,4.00
2015,12,15,03,53,4.10
2015,12,15,03,54,4.10
2015,12,15,03,55,4.10
2015,12,15,03,56,4.20
2015,12,15,03,57,4.20
2015,12,15,03,58,4.20
2015,12,15,03,59,4.20
2015,12,15,04,00,4.20
2015,12,15,04,01,4.20
2015,12,15,04,02,4.20
2015,12,15,04,03,4.20
2015,12,15,04,04,4.20
2015,12,15,04,05,4.20
2015,12,15,04,06,4.20
2015,12,15,04,07,4.20
2015,12,15,04,08,4.20
2015,12,15,04,09,4.20
2015,12,15,04,10,4.20
2015,12,15,04,11,4.20
2015,12,15,04,12,4.20
2015,12,15,04,13,4.10
2015,12,15,04,14,4.10
2015,12,15,04,15,4.10
2015,12,15,04,16,4.10
2015,12,15,04,17,4.10
2015,12,15,04,18,4.10
2015,12,15,04,19,4.10
2015,12,15,04,20,4.10
2015,12,15,04,21,4.10
2015,12,15,04,22,4.10
2015,12,15,04,23,4.10
2015,12,15,04,24,4.10
2015,12,15,04,25,4.10
2015,12,15,04,26,4.10
2015,12,15,04,27,4.10
2015,12,15,04,28,4.20
2015,12,15,04,29,4.20
2015,12,15,04,30,4.20
2015,12,15,04,31,4.20
2015,12,15,04,32,4.20
2015,12,15,04,33,4.20
2015,12,15,04,34,4.20
2015,12,15,04,36,4.20
2015,12,15,04,37,4.20
2015,12,15,04,38,4.20
2015,12,15,04,39,4.20
2015,12,15,04,41,4.20
2015,12,15,04,42,4.20
2015,12,15,04,43,4.20
2015,12,15,04,44,4.20
2015,12,15,04,46,4.20
2015,12,15,04,47,4.20
2015,12,15,04,48,4.20
2015,12,15,04,49,4.20
2015,12,15,04,51,4.20
2015,12,15,04,52,4.20
2015,12,15,04,53,4.20
2015,12,15,04,54,4.20
2015,12,15,04,56,4.30
2015,12,15,04,57,4.30
2015,12,15,04,58,4.30
2015,12,15,04,59,4.30
2015,12,15,05,01,4.40
2015,12,15,05,02,4.40
2015,12,15,05,03,4.40
2015,12,15,05,04,4.40
2015,12,15,05,06,4.50
2015,12,15,05,07,4.50
2015,12,15,05,08,4.50
2015,12,15,05,09,4.50
2015,12,15,05,11,4.50
2015,12,15,05,12,4.50
2015,12,15,05,13,4.50
2015,12,15,05,14,4.50
2015,12,15,05,16,4.50
2015,12,15,05,17,4.40
2015,12,15,05,18,4.40
2015,12,15,05,19,4.40
2015,12,15,05,21,4.40
2015,12,15,05,22,4.40
2015,12,15,05,23,4.40
2015,12,15,05,24,4.40
2015,12,15,05,26,4.30
2015,12,15,05,27,4.30
2015,12,15,05,28,4.30
2015,12,15,05,29,4.30
2015,12,15,05,31,4.30
2015,12,15,05,32,4.30
2015,12,15,05,33,4.30
2015,12,15,05,34,4.20
2015,12,15,05,36,4.20
2015,12,15,05,37,4.20
2015,12,15,05,38,4.20
2015,12,15,05,39,4.20
2015,12,15,05,41,4.20
2015,12,15,05,42,4.20
2015,12,15,05,43,4.20
2015,12,15,05,44,4.20
2015,12,15,05,46,4.20
2015,12,15,05,47,4.20
2015,12,15,05,48,4.20
2015,12,15,05,49,4.20
2015,12,15,05,51,4.20
2015,12,15,05,52,4.20
2015,12,15,05,53,4.20
2015,12,15,05,54,4.20
2015,12,15,05,55,4.20
2015,12,15,05,56,4.20
2015,12,15,05,57,4.20
2015,12,15,05,58,4.20
2015,12,15,05,59,4.20
2015,12,15,06,00,4.20
2015,12,15,06,01,4.20
2015,12,15,06,02,4.20
2015,12,15,06,03,4.20
2015,12,15,06,04,4.20
2015,12,15,06,06,4.20
2015,12,15,06,07,4.20
2015,12,15,06,08,4.20
2015,12,15,06,09,4.20
2015,12,15,06,10,4.20
2015,12,15,06,11,4.20
2015,12,15,06,12,4.20
2015,12,15,06,13,4.20
2015,12,15,06,14,4.20
2015,12,15,06,15,4.30
2015,12,15,06,16,4.30
2015,12,15,06,17,4.30
2015,12,15,06,18,4.30
2015,12,15,06,19,4.30
2015,12,15,06,20,4.40
2015,12,15,06,21,4.50
2015,12,15,06,22,4.60
2015,12,15,06,23,4.60
2015,12,15,06,24,4.70
2015,12,15,06,25,4.90
2015,12,15,06,26,4.90
2015,12,15,06,27,5.10
2015,12,15,06,28,5.20
2015,12,15,06,29,5.30
2015,12,15,06,30,5.30
2015,12,15,06,31,5.30
2015,12,15,06,32,5.40
2015,12,15,06,33,5.40
2015,12,15,06,34,5.50
2015,12,15,06,35,5.50
2015,12,15,06,36,5.60
2015,12,15,06,37,5.70
2015,12,15,06,38,5.70
2015,12,15,06,39,5.70
2015,12,15,06,40,5.70
2015,12,15,06,41,5.80
2015,12,15,06,42,5.80
2015,12,15,06,43,5.90
2015,12,15,06,44,5.90
2015,12,15,06,45,6.00
2015,12,15,06,46,6.00
2015,12,15,06,47,6.00
2015,12,15,06,48,6.00
2015,12,15,06,49,6.10
2015,12,15,06,50,6.10
2015,12,15,06,51,6.10
2015,12,15,06,52,6.20
2015,12,15,06,53,6.20
2015,12,15,06,54,6.20
2015,12,15,06,55,6.20
2015,12,15,06,56,6.20
2015,12,15,06,57,6.20
2015,12,15,06,58,6.20
2015,12,15,06,59,6.30
2015,12,15,07,00,6.30
2015,12,15,07,01,6.30
2015,12,15,07,02,6.30
2015,12,15,07,03,6.30
2015,12,15,07,04,6.30
2015,12,15,07,06,6.30
2015,12,15,07,07,6.30
2015,12,15,07,08,6.30
2015,12,15,07,09,6.30
2015,12,15,07,11,6.20
2015,12,15,07,12,6.20
2015,12,15,07,13,6.20
2015,12,15,07,14,6.20
2015,12,15,07,16,6.20
2015,12,15,07,17,6.20
2015,12,15,07,18,6.20
2015,12,15,07,19,6.20
2015,12,15,07,21,6.20
2015,12,15,07,22,6.20
2015,12,15,07,23,6.20
2015,12,15,07,24,6.20
2015,12,15,07,26,6.20
2015,12,15,07,27,6.20
2015,12,15,07,28,6.30
2015,12,15,07,29,6.30
2015,12,15,07,31,6.30
2015,12,15,07,32,6.30
2015,12,15,07,33,6.30
2015,12,15,07,34,6.30
2015,12,15,07,36,6.30
2015,12,15,07,37,6.30
2015,12,15,07,38,6.30
2015,12,15,07,39,6.30
2015,12,15,07,41,6.30
2015,12,15,07,42,6.30
2015,12,15,07,43,6.30
2015,12,15,07,44,6.30
2015,12,15,07,46,6.30
2015,12,15,07,47,6.30
2015,12,15,07,48,6.30
2015,12,15,07,49,6.30
2015,12,15,07,51,6.40
2015,12,15,07,52,6.40
2015,12,15,07,53,6.40
2015,12,15,07,54,6.40
2015,12,15,07,56,6.40
2015,12,15,07,57,6.40
2015,12,15,07,58,6.40
2015,12,15,07,59,6.40
2015,12,15,08,01,6.60
2015,12,15,08,02,6.60
2015,12,15,08,03,6.40
2015,12,15,08,04,6.40
2015,12,15,08,06,6.40
2015,12,15,08,07,6.40
2015,12,15,08,08,6.40
2015,12,15,08,09,6.40
2015,12,15,08,10,6.40
2015,12,15,08,11,6.40
2015,12,15,08,12,6.40
2015,12,15,08,13,6.40
2015,12,15,08,14,6.40
2015,12,15,08,15,6.40
2015,12,15,08,16,6.40
2015,12,15,08,17,6.40
2015,12,15,08,18,6.40
2015,12,15,08,19,6.40
2015,12,15,08,20,6.40
2015,12,15,08,21,6.40
2015,12,15,08,22,6.40
2015,12,15,08,23,6.40
2015,12,15,08,24,6.40
2015,12,15,08,25,6.30
2015,12,15,08,26,6.30
2015,12,15,08,27,6.30
2015,12,15,08,28,6.30
2015,12,15,08,29,6.30
2015,12,15,08,30,6.30
2015,12,15,08,31,6.30
2015,12,15,08,32,6.30
2015,12,15,08,33,6.30
2015,12,15,08,34,6.30
2015,12,15,08,35,6.30
2015,12,15,08,36,6.30
2015,12,15,08,37,6.30
2015,12,15,08,38,6.30
2015,12,15,08,39,6.30
2015,12,15,08,40,6.30
2015,12,15,08,41,6.30
2015,12,15,08,42,6.30
2015,12,15,08,43,6.30
2015,12,15,08,44,6.30
2015,12,15,08,45,6.30
2015,12,15,08,46,6.30
2015,12,15,08,47,6.30
2015,12,15,08,48,6.30
2015,12,15,08,49,6.30
2015,12,15,08,50,6.30
2015,12,15,08,51,6.30
2015,12,15,08,52,6.30
2015,12,15,08,53,6.30
2015,12,15,08,54,6.30
2015,12,15,08,55,6.30
2015,12,15,08,56,6.30
2015,12,15,08,57,6.30
2015,12,15,08,58,6.30
2015,12,15,08,59,6.30
2015,12,15,09,00,6.30
2015,12,15,09,01,6.30
2015,12,15,09,02,6.30
2015,12,15,09,03,6.30
2015,12,15,09,04,6.30
2015,12,15,09,05,6.30
2015,12,15,09,06,6.40
2015,12,15,09,07,6.40
2015,12,15,09,08,6.40
2015,12,15,09,09,6.40
2015,12,15,09,10,6.40
2015,12,15,09,11,6.40
2015,12,15,09,12,6.40
2015,12,15,09,13,6.40
2015,12,15,09,14,6.30
2015,12,15,09,15,6.30
2015,12,15,09,16,6.30
2015,12,15,09,17,6.30
2015,12,15,09,18,6.30
2015,12,15,09,19,6.30
2015,12,15,09,20,6.40
2015,12,15,09,21,6.40
2015,12,15,09,22,6.40
2015,12,15,09,23,6.40
2015,12,15,09,24,6.40
2015,12,15,09,25,6.40
2015,12,15,09,26,6.40
2015,12,15,09,27,6.40
2015,12,15,09,28,6.40
2015,12,15,09,29,6.40
2015,12,15,09,31,6.60
2015,12,15,09,32,6.60
2015,12,15,09,33,6.60
2015,12,15,09,34,6.60
2015,12,15,09,36,6.70
2015,12,15,09,37,6.70
2015,12,15,09,38,6.80
2015,12,15,09,39,6.80
2015,12,15,09,41,6.80
2015,12,15,09,42,6.80
2015,12,15,09,43,6.80
2015,12,15,09,44,6.80
2015,12,15,09,46,6.90
2015,12,15,09,47,6.90
2015,12,15,09,48,6.90
2015,12,15,09,49,7.00
2015,12,15,09,51,7.00
2015,12,15,09,52,7.00
2015,12,15,09,53,7.00
2015,12,15,09,54,7.00
2015,12,15,09,56,7.00
2015,12,15,09,57,7.00
2015,12,15,09,58,7.00
2015,12,15,09,59,7.00
2015,12,15,10,01,7.00
2015,12,15,10,02,7.00
2015,12,15,10,03,7.00
2015,12,15,10,04,7.00
2015,12,15,10,06,7.10
2015,12,15,10,07,7.10
2015,12,15,10,08,7.10
2015,12,15,10,09,7.10
2015,12,15,10,11,7.10
2015,12,15,10,12,7.10
2015,12,15,10,13,7.10
2015,12,15,10,14,7.20
2015,12,15,10,16,7.20
2015,12,15,10,17,7.20
2015,12,15,10,18,7.20
2015,12,15,10,19,7.20
2015,12,15,10,21,7.30
2015,12,15,10,22,7.30
2015,12,15,10,23,7.30
2015,12,15,10,24,7.30
2015,12,15,10,26,7.30
2015,12,15,10,27,7.30
2015,12,15,10,28,7.30
2015,12,15,10,29,7.30
2015,12,15,10,31,7.30
2015,12,15,10,32,7.30
2015,12,15,10,33,7.30
2015,12,15,10,34,7.30
2015,12,15,10,36,7.30
2015,12,15,10,37,7.30
2015,12,15,10,38,7.30
2015,12,15,10,39,7.30
2015,12,15,10,41,7.20
2015,12,15,10,42,7.20
2015,12,15,10,43,7.10
2015,12,15,10,44,7.10
2015,12,15,10,46,7.10
2015,12,15,10,47,7.10
2015,12,15,10,48,7.00
2015,12,15,10,49,7.00
2015,12,15,10,51,6.90
2015,12,15,10,52,6.90
2015,12,15,10,53,6.80
2015,12,15,10,54,6.80
2015,12,15,10,56,6.80
2015,12,15,10,57,6.80
2015,12,15,10,58,6.80
2015,12,15,10,59,6.80
2015,12,15,11,01,6.80
2015,12,15,11,02,6.80
2015,12,15,11,03,6.80
2015,12,15,11,04,6.80
2015,12,15,11,06,6.80
2015,12,15,11,07,6.80
2015,12,15,11,08,6.80
2015,12,15,11,09,6.80
2015,12,15,11,10,6.80
2015,12,15,11,11,6.80
2015,12,15,11,12,6.80
2015,12,15,11,13,6.80
2015,12,15,11,14,6.80
2015,12,15,11,15,6.80
2015,12,15,11,16,6.80
2015,12,15,11,17,6.80
2015,12,15,11,18,6.80
2015,12,15,11,19,6.80
2015,12,15,11,20,6.80
2015,12,15,11,21,6.80
2015,12,15,11,22,6.80
2015,12,15,11,23,6.80
2015,12,15,11,24,6.80
2015,12,15,11,25,6.70
2015,12,15,11,26,6.70
2015,12,15,11,27,6.70
2015,12,15,11,28,6.80
2015,12,15,11,29,6.70
2015,12,15,11,30,6.70
2015,12,15,11,31,6.70
2015,12,15,11,32,6.70
2015,12,15,11,33,6.70
2015,12,15,11,34,6.70
2015,12,15,11,35,6.70
2015,12,15,11,36,6.70
2015,12,15,11,37,6.70
2015,12,15,11,38,6.70
2015,12,15,11,39,6.70
2015,12,15,11,40,6.70
2015,12,15,11,41,6.70
2015,12,15,11,42,6.80
2015,12,15,11,43,6.80
2015,12,15,11,44,6.80
2015,12,15,11,45,6.80
2015,12,15,11,46,6.80
2015,12,15,11,47,6.80
2015,12,15,11,48,6.80
2015,12,15,11,49,6.80
2015,12,15,11,50,6.80
2015,12,15,11,51,6.80
2015,12,15,11,52,6.70
2015,12,15,11,53,6.70
2015,12,15,11,54,6.70
2015,12,15,11,55,6.70
2015,12,15,11,56,6.80
2015,12,15,11,57,6.70
2015,12,15,11,58,6.70
2015,12,15,11,59,6.70
2015,12,15,12,00,6.70
2015,12,15,12,01,6.70
2015,12,15,12,02,6.70
2015,12,15,12,03,6.80
2015,12,15,12,04,6.80
2015,12,15,12,05,6.80
2015,12,15,12,06,6.80
2015,12,15,12,07,6.80
2015,12,15,12,08,6.80
2015,12,15,12,09,6.80
2015,12,15,12,10,6.80
2015,12,15,12,11,6.80
2015,12,15,12,12,6.80
2015,12,15,12,13,6.80
2015,12,15,12,14,6.80
2015,12,15,12,15,6.70
2015,12,15,12,16,6.70
2015,12,15,12,17,6.70
2015,12,15,12,18,6.70
2015,12,15,12,19,6.70
2015,12,15,12,21,6.70
2015,12,15,12,22,6.70
2015,12,15,12,23,6.60
2015,12,15,12,24,6.60
2015,12,15,12,26,6.60
2015,12,15,12,27,6.60
2015,12,15,12,28,6.60
2015,12,15,12,29,6.70
2015,12,15,12,31,6.70
2015,12,15,12,32,6.70
2015,12,15,12,33,6.70
2015,12,15,12,34,6.70
2015,12,15,12,36,6.70
2015,12,15,12,37,6.60
2015,12,15,12,38,6.60
2015,12,15,12,39,6.60
2015,12,15,12,41,6.60
2015,12,15,12,42,6.60
2015,12,15,12,43,6.60
2015,12,15,12,44,6.60
2015,12,15,12,46,6.60
2015,12,15,12,47,6.60
2015,12,15,12,48,6.60
2015,12,15,12,49,6.60
2015,12,15,12,51,6.60
2015,12,15,12,52,6.60
2015,12,15,12,53,6.60
2015,12,15,12,54,6.60
2015,12,15,12,56,6.60
2015,12,15,12,57,6.60
2015,12,15,12,58,6.60
2015,12,15,12,59,6.60
2015,12,15,13,01,6.40
2015,12,15,13,02,6.40
2015,12,15,13,03,6.40
2015,12,15,13,04,6.40
2015,12,15,13,06,6.40
2015,12,15,13,07,6.40
2015,12,15,13,08,6.40
2015,12,15,13,09,6.60
2015,12,15,13,11,6.60
2015,12,15,13,12,6.60
2015,12,15,13,13,6.60
2015,12,15,13,14,6.40
2015,12,15,13,16,6.40
2015,12,15,13,17,6.40
2015,12,15,13,18,6.40
2015,12,15,13,19,6.40
2015,12,15,13,21,6.40
2015,12,15,13,22,6.40
2015,12,15,13,23,6.40
2015,12,15,13,24,6.40
2015,12,15,13,26,6.40
2015,12,15,13,27,6.40
2015,12,15,13,28,6.40
2015,12,15,13,29,6.40
2015,12,15,13,31,6.40
2015,12,15,13,32,6.40
2015,12,15,13,33,6.30
2015,12,15,13,34,6.30
2015,12,15,13,36,6.20
2015,12,15,13,37,6.20
2015,12,15,13,38,6.20
2015,12,15,13,39,6.30
2015,12,15,13,40,6.30
2015,12,15,13,41,6.30
2015,12,15,13,42,6.30
2015,12,15,13,43,6.30
2015,12,15,13,44,6.30
2015,12,15,13,45,6.30
2015,12,15,13,46,6.30
2015,12,15,13,47,6.30
2015,12,15,13,48,6.30
2015,12,15,13,49,6.30
2015,12,15,13,50,6.20
2015,12,15,13,51,6.20
2015,12,15,13,52,6.20
2015,12,15,13,53,6.20
2015,12,15,13,54,6.20
2015,12,15,13,55,6.20
2015,12,15,13,56,6.20
2015,12,15,13,57,6.30
2015,12,15,13,58,6.30
2015,12,15,13,59,6.30
2015,12,15,14,00,6.30
2015,12,15,14,01,6.30
2015,12,15,14,02,6.30
2015,12,15,14,03,6.30
2015,12,15,14,04,6.30
2015,12,15,14,05,6.30
2015,12,15,14,06,6.30
2015,12,15,14,07,6.30
2015,12,15,14,08,6.40
2015,12,15,14,09,6.40
2015,12,15,14,10,6.30
2015,12,15,14,11,6.30
2015,12,15,14,12,6.30
2015,12,15,14,13,6.30
2015,12,15,14,14,6.30
2015,12,15,14,15,6.30
2015,12,15,14,16,6.30
2015,12,15,14,17,6.30
2015,12,15,14,18,6.30
2015,12,15,14,19,6.30
2015,12,15,14,20,6.30
2015,12,15,14,21,6.30
2015,12,15,14,22,6.30
2015,12,15,14,23,6.30
2015,12,15,14,24,6.30
2015,12,15,14,25,6.30
2015,12,15,14,26,6.30
2015,12,15,14,27,6.30
2015,12,15,14,28,6.30
2015,12,15,14,29,6.30
2015,12,15,14,30,6.30
2015,12,15,14,32,6.30
2015,12,15,14,33,6.30
2015,12,15,14,34,6.20
2015,12,15,14,36,6.20
2015,12,15,14,37,6.20
2015,12,15,14,38,6.20
2015,12,15,14,39,6.20
2015,12,15,14,41,6.30
2015,12,15,14,42,6.30
2015,12,15,14,43,6.30
2015,12,15,14,44,6.30
2015,12,15,14,46,6.40
2015,12,15,14,47,6.40
2015,12,15,14,48,6.40
2015,12,15,14,49,6.40
2015,12,15,14,51,6.40
2015,12,15,14,52,6.40
2015,12,15,14,53,6.40
2015,12,15,14,54,6.40
2015,12,15,14,56,6.40
2015,12,15,14,57,6.40
2015,12,15,14,58,6.40
2015,12,15,14,59,6.40
2015,12,15,15,01,6.40
2015,12,15,15,02,6.40
2015,12,15,15,03,6.40
2015,12,15,15,04,6.40
2015,12,15,15,06,6.30
2015,12,15,15,07,6.30
2015,12,15,15,08,6.40
2015,12,15,15,09,6.40
2015,12,15,15,11,6.40
2015,12,15,15,12,6.40
2015,12,15,15,13,6.40
2015,12,15,15,14,6.40
2015,12,15,15,16,6.60
2015,12,15,15,17,6.60
2015,12,15,15,18,6.60
2015,12,15,15,19,6.60
2015,12,15,15,21,6.60
2015,12,15,15,22,6.60
2015,12,15,15,23,6.60
2015,12,15,15,24,6.60
2015,12,15,15,26,6.70
2015,12,15,15,27,6.70
2015,12,15,15,28,6.70
2015,12,15,15,29,6.70
2015,12,15,15,30,6.70
2015,12,15,15,31,6.70
2015,12,15,15,32,6.70
2015,12,15,15,33,6.70
2015,12,15,15,34,6.70
2015,12,15,15,35,6.70
2015,12,15,15,36,6.60
2015,12,15,15,37,6.60
2015,12,15,15,38,6.60
2015,12,15,15,39,6.60
2015,12,15,15,40,6.60
2015,12,15,15,41,6.60
2015,12,15,15,42,6.60
2015,12,15,15,43,6.60
2015,12,15,15,44,6.60
2015,12,15,15,45,6.60
2015,12,15,15,46,6.60
2015,12,15,15,47,6.60
2015,12,15,15,48,6.60
2015,12,15,15,49,6.60
2015,12,15,15,50,6.60
2015,12,15,15,51,6.60
2015,12,15,15,52,6.60
2015,12,15,15,53,6.60
2015,12,15,15,54,6.60
2015,12,15,15,55,6.60
2015,12,15,15,56,6.60
2015,12,15,15,57,6.60
2015,12,15,15,58,6.60
2015,12,15,15,59,6.60
2015,12,15,16,00,6.60
2015,12,15,16,01,6.60
2015,12,15,16,02,6.60
2015,12,15,16,03,6.60
2015,12,15,16,04,6.40
2015,12,15,16,05,6.40
2015,12,15,16,06,6.40
2015,12,15,16,07,6.40
2015,12,15,16,08,6.40
2015,12,15,16,09,6.40
2015,12,15,16,10,6.40
2015,12,15,16,11,6.40
2015,12,15,16,12,6.40
2015,12,15,16,13,6.40
2015,12,15,16,14,6.40
2015,12,15,16,15,6.40
2015,12,15,16,16,6.40
2015,12,15,16,17,6.40
2015,12,15,16,18,6.40
2015,12,15,16,19,6.40
2015,12,15,16,20,6.40
2015,12,15,16,21,6.40
2015,12,15,16,22,6.40
2015,12,15,16,23,6.40
2015,12,15,16,24,6.40
2015,12,15,16,25,6.40
2015,12,15,16,26,6.40
2015,12,15,16,27,6.40
2015,12,15,16,29,6.40
2015,12,15,16,31,6.40
2015,12,15,16,32,6.40
2015,12,15,16,33,6.40
2015,12,15,16,34,6.40
2015,12,15,16,36,6.40
2015,12,15,16,37,6.40
2015,12,15,16,38,6.40
2015,12,15,16,39,6.40
2015,12,15,16,41,6.40
2015,12,15,16,42,6.60
2015,12,15,16,43,6.60
2015,12,15,16,44,6.60
2015,12,15,16,46,6.60
2015,12,15,16,47,6.60
2015,12,15,16,48,6.60
2015,12,15,16,49,6.60
2015,12,15,16,51,6.60
2015,12,15,16,52,6.60
2015,12,15,16,53,6.70
2015,12,15,16,54,6.70
2015,12,15,16,56,6.80
2015,12,15,16,57,6.80
2015,12,15,16,58,6.80
2015,12,15,16,59,6.80
2015,12,15,17,01,6.80
2015,12,15,17,02,6.80
2015,12,15,17,03,6.80
2015,12,15,17,04,6.80
2015,12,15,17,06,6.90
2015,12,15,17,07,6.90
2015,12,15,17,08,6.90
2015,12,15,17,09,7.00
2015,12,15,17,11,7.00
2015,12,15,17,12,7.00
2015,12,15,17,13,7.00
2015,12,15,17,14,7.00
2015,12,15,17,16,7.00
2015,12,15,17,17,7.00
2015,12,15,17,18,7.00
2015,12,15,17,19,7.00
2015,12,15,17,21,6.90
2015,12,15,17,22,6.90
2015,12,15,17,23,6.80
2015,12,15,17,24,6.80
2015,12,15,17,26,6.80
2015,12,15,17,27,6.80
2015,12,15,17,28,6.70
2015,12,15,17,29,6.70
2015,12,15,17,31,6.70
2015,12,15,17,32,6.60
2015,12,15,17,33,6.60
2015,12,15,17,34,6.60
2015,12,15,17,36,6.60
2015,12,15,17,37,6.40
2015,12,15,17,38,6.40
2015,12,15,17,39,6.40
2015,12,15,17,40,6.40
2015,12,15,17,41,6.40
2015,12,15,17,42,6.40
2015,12,15,17,43,6.40
2015,12,15,17,44,6.40
2015,12,15,17,45,6.40
2015,12,15,17,46,6.40
2015,12,15,17,47,6.40
2015,12,15,17,48,6.40
2015,12,15,17,49,6.40
2015,12,15,17,50,6.40
2015,12,15,17,51,6.40
2015,12,15,17,52,6.40
2015,12,15,17,53,6.40
2015,12,15,17,54,6.40
2015,12,15,17,55,6.40
2015,12,15,17,56,6.40
2015,12,15,17,57,6.40
2015,12,15,17,58,6.60
2015,12,15,17,59,6.60
2015,12,15,18,00,6.60
2015,12,15,18,01,6.60
2015,12,15,18,02,6.60
2015,12,15,18,03,6.70
2015,12,15,18,04,6.70
2015,12,15,18,05,6.70
2015,12,15,18,06,6.70
2015,12,15,18,07,6.70
2015,12,15,18,08,6.70
2015,12,15,18,09,6.70
2015,12,15,18,10,6.70
2015,12,15,18,11,6.70
2015,12,15,18,12,6.70
2015,12,15,18,13,6.70
2015,12,15,18,14,6.70
2015,12,15,18,15,6.60
2015,12,15,18,16,6.60
2015,12,15,18,17,6.60
2015,12,15,18,18,6.60
2015,12,15,18,19,6.60
2015,12,15,18,20,6.60
2015,12,15,18,21,6.60
2015,12,15,18,22,6.70
2015,12,15,18,23,6.70
2015,12,15,18,24,6.70
2015,12,15,18,25,6.70
2015,12,15,18,26,6.80
2015,12,15,18,27,6.80
2015,12,15,18,28,6.80
2015,12,15,18,29,6.80
2015,12,15,18,30,6.80
2015,12,15,18,31,6.80
2015,12,15,18,32,6.80
2015,12,15,18,33,6.80
2015,12,15,18,34,6.80
2015,12,15,18,35,6.80
2015,12,15,18,36,6.80
2015,12,15,18,37,6.80
2015,12,15,18,38,6.80
2015,12,15,18,39,6.70
2015,12,15,18,40,6.70
2015,12,15,18,41,6.70
2015,12,15,18,42,6.70
2015,12,15,18,43,6.70
2015,12,15,18,44,6.70
2015,12,15,18,45,6.70
2015,12,15,18,46,6.70
2015,12,15,18,48,6.70
2015,12,15,18,49,6.70
2015,12,15,18,51,6.70
2015,12,15,18,52,6.70
2015,12,15,18,53,6.70
2015,12,15,18,54,6.70
2015,12,15,18,56,6.80
2015,12,15,18,57,6.80
2015,12,15,18,58,6.80
2015,12,15,18,59,6.80
2015,12,15,19,01,6.80
2015,12,15,19,02,6.80
2015,12,15,19,03,6.80
2015,12,15,19,04,6.80
2015,12,15,19,06,6.80
2015,12,15,19,07,6.80
2015,12,15,19,08,6.80
2015,12,15,19,09,6.80
2015,12,15,19,11,6.80
2015,12,15,19,12,6.80
2015,12,15,19,13,6.80
2015,12,15,19,14,6.80
2015,12,15,19,16,6.80
2015,12,15,19,17,6.80
2015,12,15,19,18,6.80
2015,12,15,19,19,6.80
2015,12,15,19,21,6.80
2015,12,15,19,22,6.80
2015,12,15,19,23,6.80
2015,12,15,19,24,6.80
2015,12,15,19,26,6.80
2015,12,15,19,27,6.80
2015,12,15,19,28,6.80
2015,12,15,19,29,6.80
2015,12,15,19,31,6.80
2015,12,15,19,32,6.80
2015,12,15,19,33,6.80
2015,12,15,19,34,6.80
2015,12,15,19,36,6.80
2015,12,15,19,37,6.80
2015,12,15,19,38,6.80
2015,12,15,19,39,6.80
2015,12,15,19,41,6.80
2015,12,15,19,42,6.80
2015,12,15,19,43,6.80
2015,12,15,19,44,6.80
2015,12,15,19,46,6.80
2015,12,15,19,47,6.80
2015,12,15,19,48,6.70
2015,12,15,19,49,6.70
2015,12,15,19,51,6.70
2015,12,15,19,52,6.60
2015,12,15,19,53,6.60
2015,12,15,19,54,6.60
2015,12,15,19,56,6.60
2015,12,15,19,57,6.60
2015,12,15,19,58,6.60
2015,12,15,19,59,6.60
2015,12,15,20,01,6.60
2015,12,15,20,02,6.60
2015,12,15,20,03,6.60
2015,12,15,20,04,6.60
2015,12,15,20,06,6.70
2015,12,15,20,07,6.80
2015,12,15,20,08,6.80
2015,12,15,20,09,6.80
2015,12,15,20,10,6.80
2015,12,15,20,11,6.80
2015,12,15,20,12,6.80
2015,12,15,20,13,6.80
2015,12,15,20,14,6.80
2015,12,15,20,15,6.80
2015,12,15,20,16,6.80
2015,12,15,20,17,6.80
2015,12,15,20,18,6.80
2015,12,15,20,19,6.80
2015,12,15,20,20,6.80
2015,12,15,20,21,6.80
2015,12,15,20,22,6.80
2015,12,15,20,23,6.80
2015,12,15,20,24,6.80
2015,12,15,20,25,6.80
2015,12,15,20,26,6.80
2015,12,15,20,27,6.80
2015,12,15,20,28,6.70
2015,12,15,20,29,6.70
2015,12,15,20,30,6.70
2015,12,15,20,31,6.70
2015,12,15,20,32,6.70
2015,12,15,20,33,6.70
2015,12,15,20,34,6.70
2015,12,15,20,35,6.80
2015,12,15,20,36,6.80
2015,12,15,20,37,6.80
2015,12,15,20,38,6.80
2015,12,15,20,39,6.80
2015,12,15,20,40,6.80
2015,12,15,20,41,6.80
2015,12,15,20,42,6.80
2015,12,15,20,43,6.70
2015,12,15,20,44,6.70
2015,12,15,20,45,6.70
2015,12,15,20,46,6.70
2015,12,15,20,47,6.70
2015,12,15,20,48,6.70
2015,12,15,20,49,6.70
2015,12,15,20,50,6.60
2015,12,15,20,51,6.60
2015,12,15,20,52,6.60
2015,12,15,20,53,6.60
2015,12,15,20,54,6.60
2015,12,15,20,55,6.60
2015,12,15,20,56,6.60
2015,12,15,20,57,6.60
2015,12,15,20,58,6.60
2015,12,15,20,59,6.60
2015,12,15,21,00,6.60
2015,12,15,21,01,6.60
2015,12,15,21,02,6.60
2015,12,15,21,03,6.60
2015,12,15,21,04,6.60
2015,12,15,21,05,6.60
2015,12,15,21,06,6.60
2015,12,15,21,07,6.60
2015,12,15,21,08,6.60
2015,12,15,21,09,6.60
2015,12,15,21,10,6.60
2015,12,15,21,11,6.60
2015,12,15,21,12,6.60
2015,12,15,21,13,6.60
2015,12,15,21,14,6.60
2015,12,15,21,15,6.60
2015,12,15,21,16,6.60
2015,12,15,21,17,6.60
2015,12,15,21,18,6.60
2015,12,15,21,19,6.60
2015,12,15,21,20,6.60
2015,12,15,21,21,6.40
2015,12,15,21,22,6.40
2015,12,15,21,23,6.40
2015,12,15,21,24,6.40
2015,12,15,21,25,6.40
2015,12,15,21,26,6.40
2015,12,15,21,28,6.40
2015,12,15,21,29,6.30
2015,12,15,21,31,6.30
2015,12,15,21,32,6.30
2015,12,15,21,33,6.30
2015,12,15,21,34,6.30
2015,12,15,21,36,6.30
2015,12,15,21,37,6.30
2015,12,15,21,38,6.30
2015,12,15,21,39,6.30
2015,12,15,21,41,6.30
2015,12,15,21,42,6.30